This is the latest recevied weather packets stored in our database for station/object N9CQL. If no packets are shown the sender has not sent any weather packets the latest 10 day(s).
| Time | Temp. | Humidity | Pressure | Rain* | Wind** | Luminosity | Snow |
|---|---|---|---|---|---|---|---|
| 1778107083 | 13.33° C | 40% | 1012.5 hPa | 0 mm | - | 104 W/m² | - |
| 1778106778 | 13.33° C | 39% | 1012.3 hPa | 0 mm | - | 107 W/m² | - |
| 1778106475 | 13.33° C | 40% | 1012.1 hPa | 0 mm | - | 155 W/m² | - |
| 1778106171 | 13.33° C | 41% | 1012.2 hPa | 0 mm | - | 92 W/m² | - |
| 1778105869 | 13.89° C | 40% | 1012.2 hPa | 0 mm | - | 99 W/m² | - |
| 1778105566 | 14.44° C | 39% | 1011.8 hPa | 0 mm | - | 366 W/m² | - |
| 1778105264 | 14.44° C | 38% | 1012 hPa | 0 mm | - | 375 W/m² | - |
| 1778104958 | 15° C | 38% | 1012 hPa | 0 mm | - | 360 W/m² | - |
| 1778104656 | 15.56° C | 38% | 1012.3 hPa | 0 mm | - | 417 W/m² | - |
| 1778104350 | 15.56° C | 37% | 1012.1 hPa | 0 mm | - | 409 W/m² | - |
| 1778104042 | 14.44° C | 38% | 1011.8 hPa | 0 mm | - | 422 W/m² | - |
| 1778103739 | 15.56° C | 38% | 1011.9 hPa | 0 mm | - | 135 W/m² | - |
| 1778103437 | 15° C | 37% | 1011.8 hPa | 0 mm | - | 460 W/m² | - |
| 1778103134 | 13.89° C | 40% | 1011.7 hPa | 0 mm | - | 178 W/m² | - |
| 1778102831 | 13.89° C | 39% | 1011.8 hPa | 0 mm | - | 147 W/m² | - |
| 1778102527 | 15° C | 37% | 1011.9 hPa | 0 mm | - | 131 W/m² | - |
| 1778102222 | 16.11° C | 35% | 1011.9 hPa | 0 mm | - | 184 W/m² | - |
| 1778101919 | 15° C | 38% | 1011.7 hPa | 0 mm | - | 530 W/m² | - |
| 1778101616 | 15° C | 36% | 1011.9 hPa | 0 mm | - | 175 W/m² | - |
| 1778101312 | 15° C | 37% | 1011.8 hPa | 0 mm | - | 467 W/m² | - |
| 1778101010 | 15.56° C | 35% | 1011.9 hPa | 0 mm | - | 165 W/m² | - |
| 1778100704 | 15.56° C | 35% | 1012.1 hPa | 0 mm | - | 532 W/m² | - |
| 1778100403 | 14.44° C | 36% | 1011.8 hPa | 0 mm | - | 570 W/m² | - |
| 1778100099 | 14.44° C | 37% | 1011.9 hPa | 0 mm | - | 590 W/m² | - |
| 1778099798 | 15° C | 37% | 1011.8 hPa | 0 mm | - | 510 W/m² | - |
* Rain latest hour (hover to see other rain measurements)
** Current wind speed in m/s (hover to see current wind gust speed)